Search your local weather  

 
Advertise Here

Hazardous Weather Conditions

No active alerts for SAN ANTONIO, TEXAS

Current Conditions: SAN ANTONIO, TEXAS

Fair


78.0 F

Last Updated on Jul 6 2020, 6:55 am CDT
Humidity: 91%
Wind Speed: mph
Barometer 29.91 in
Dewpoint: 75.4 F
Visibility: 10.00 mi
Precip: --
Heat Index: NA
Wind Chill: NA
Current conditions at:

Castroville Municipal Airport, TX (KCVB)

Lat: 29.34192 Lon: -98.8509

Local Radar Image active severe weather and emergency alerts image image weather storm and storm spotter reports image weather observation monitoring service image
Local
Radar
Active
Alerts
Storm Reports Weather
Monitoring

5 Day Forecast for SAN ANTONIO, TEXAS (78201)

Monday

Mostly Cloudy

High 100 °F
Monday
Night
Mostly Cloudy

Low 78 °F
Tuesday

Mostly Cloudy

High 97 °F
Tuesday
Night
Partly Cloudy

Low 78 °F
Wednesday

Partly Sunny

High 98 °F
Wednesday
Night
Partly Cloudy

Low 78 °F
Thursday

Partly Sunny

High 99 °F
Thursday
Night
Mostly Clear

Low 78 °F
Friday

Mostly Sunny

High 100 °F

Sign-up For Email & Text Message Weather Alert Notification Services


Advertise Here

Observation History for SAN ANTONIO, TEXAS


Time Wind
(mph)
Vis
(mi)
Weather Precip (in) Temperature (F) Relative
Humidity
Wind
Chill
(F)
Heat
Index
(F)
Pressure
Air Dwpt altimeter
(in)
sea level
(mb)
6:55 am CDT 10.00 Fair -- 78.0 75.4 91% NA NA 29.91 M
6:35 am CDT 10.00 Fair -- 79.0 74.7 87% NA NA 29.91 M
5:55 am CDT 10.00 Fair -- 79.0 74.5 85% NA NA 29.88 M
4:55 am CDT 10.00 Fair -- 80.0 73.8 82% NA 84 29.87 M
4:35 am CDT 10.00 Fair -- 80.0 73.6 80% NA 84 29.86 M
3:55 am CDT 10.00 Fair -- 81.0 73.4 77% NA 86 29.87 M
2:55 am CDT 7.00 Fair -- 83.0 72.9 72% NA 89 29.87 M
1:55 am CDT 10.00 Fair -- 84.0 72.5 68% NA 90 29.87 M
12:55 am CDT 10.00 Fair -- 86.0 72.0 64% NA 92 29.86 M
11:55 pm CDT 10.00 Fair -- 87.0 72.5 62% NA 94 29.85 M
10:55 pm CDT 7.00 Fair -- 90.0 65.7 45% NA 92 29.84 M
9:55 pm CDT 7.00 Fair -- 92.0 63.1 39% NA 93 29.82 M
8:55 pm CDT 10.00 Fair -- 95.0 61.5 33% NA 96 29.81 M
7:55 pm CDT 10.00 Fair -- 99.0 61.7 29% NA 100 29.80 M
6:55 pm CDT 10.00 Fair -- 103.0 58.6 23% NA 103 29.78 M
5:55 pm CDT 10.00 Fair -- 103.0 57.0 22% NA 102 29.79 M
4:55 pm CDT 10.00 Fair -- 104.0 54.7 19% NA 103 29.81 M
3:55 pm CDT 10.00 Fair -- 103.0 58.1 22% NA 103 29.83 M
3:35 pm CDT 10.00 Fair -- 103.0 59.0 24% NA 103 29.84 M
2:55 pm CDT 10.00 Fair -- 102.0 59.4 25% NA 103 29.86 M
1:55 pm CDT 10.00 Fair -- 99.0 61.5 29% NA 100 29.89 M
12:55 pm CDT 7.00 Fair -- 96.0 64.4 36% NA 98 29.92 M
12:35 pm CDT 10.00 Fair -- 96.0 66.2 38% NA 100 29.92 M
11:55 am CDT 10.00 Fair -- 92.0 67.6 44% NA 96 29.92 M

Regional Weather Observation

San Antonio, San Antonio International Airport, TX (KSAT)

Mostly Cloudy
79.0 F

San Antonio - Kelly Field, TX (KSKF)

Mostly Cloudy
77.0 F

San Antonio, Stinson Municipal Airport, TX (KSSF)

Mostly Cloudy
76.0 F

Randolph Air Force Base, TX (KRND)

Overcast
78.0 F

New Braunfels Regional Airport, TX (KBAZ)

Overcast
80.0 F

Kerrville, Kerrville Municipal Airport/Louis Schreiner Field, TX (KERV)

Partly Cloudy
76.0 F
Advertise Here

Advertise Here